Location: Pebble Beach Sunset Acres
(33.0837°N, 96.4508°W)
Time: 01:10:46
(UTC+00:00)

Okean 1 - Pass Details

Date: 01 July 2022
Orbit: 532 x 553 km, 82.5° (Epoch: 15 August)

Event Time Altitude Azimuth Distance (km) Brightness Sun altitude
Rises 10:48:04 0° 337° (NNW) 2,687 7.0 -6.7°
Reaches altitude 10° 10:50:34 10° 322° (NW) 1,789 5.9 -6.3°
Maximum altitude 10:53:37 22° 271° (W) 1,192 4.6 -5.7°
Drops below altitude 10° 10:56:40 10° 219° (SW) 1,775 5.3 -5.2°
Enters shadow 10:58:50 - 205° (SSW) 2,545 6.2 -4.8°
